GLO1040 SBRJ-SBSP

Flight info

Callsign GLO1040
Flight time 0h 56m
Altitude 32000
Route NAXOP UZ45 IBDAL
Aircraft B738/M-SDE2E3FGHIRWXY/LB1

Departure

Time 2026-05-03 22:36
Airport Santos Dumont Airport (SBRJ)

Arrival

Time 2026-05-03 23:33
Airport Congonhas–Deputado Freitas Nobre Airport (SBSP)
Time Latitude Longitude Altitude Speed Heading
2026-05-03 22:36 -22.88296 -43.06215 6274 ft 256 kts 97°
2026-05-03 22:36 -22.88540 -43.04371 6956 ft 246 kts 97°
2026-05-03 22:37 -22.89061 -43.02513 7221 ft 271 kts 121°
2026-05-03 22:37 -22.90406 -43.01044 7838 ft 281 kts 146°
2026-05-03 22:37 -22.92183 -43.00057 8175 ft 296 kts 163°
2026-05-03 22:37 -22.94211 -42.99946 8161 ft 290 kts 194°
2026-05-03 22:38 -22.96018 -43.00827 8200 ft 284 kts 215°
2026-05-03 22:38 -22.97440 -43.02269 8172 ft 282 kts 237°
2026-05-03 22:38 -22.98171 -43.04201 8190 ft 279 kts 258°
2026-05-03 22:38 -22.98534 -43.06286 8183 ft 283 kts 258°
2026-05-03 22:39 -22.99330 -43.08214 8169 ft 281 kts 232°
2026-05-03 22:39 -23.00706 -43.09716 8199 ft 282 kts 221°
2026-05-03 22:39 -23.02208 -43.11080 8180 ft 282 kts 220°
2026-05-03 22:39 -23.03733 -43.12438 8179 ft 281 kts 220°
2026-05-03 22:40 -23.05246 -43.13786 8182 ft 281 kts 220°
2026-05-03 22:40 -23.06773 -43.15147 8181 ft 282 kts 220°
2026-05-03 22:40 -23.08150 -43.16351 8525 ft 290 kts 219°
2026-05-03 22:40 -23.09539 -43.17556 9037 ft 280 kts 219°
2026-05-03 22:41 -23.11306 -43.19092 9779 ft 289 kts 219°
2026-05-03 22:41 -23.12866 -43.20450 10568 ft 291 kts 219°
2026-05-03 22:41 -23.14453 -43.21832 11310 ft 294 kts 219°
2026-05-03 22:41 -23.16047 -43.23221 12032 ft 292 kts 219°
2026-05-03 22:42 -23.17614 -43.24586 12178 ft 288 kts 219°
2026-05-03 22:42 -23.19180 -43.25951 12272 ft 293 kts 219°
2026-05-03 22:42 -23.20790 -43.27355 12899 ft 298 kts 220°
2026-05-03 22:42 -23.22407 -43.28765 13368 ft 304 kts 220°
2026-05-03 22:43 -23.24047 -43.30196 14018 ft 304 kts 220°
2026-05-03 22:43 -23.25695 -43.31633 14708 ft 306 kts 220°
2026-05-03 22:43 -23.27364 -43.33091 15348 ft 310 kts 220°
2026-05-03 22:43 -23.29044 -43.34558 16000 ft 313 kts 220°
2026-05-03 22:44 -23.30740 -43.36040 16629 ft 315 kts 221°
2026-05-03 22:44 -23.32338 -43.37663 17231 ft 316 kts 230°
2026-05-03 22:44 -23.33595 -43.39618 17825 ft 316 kts 244°
2026-05-03 22:44 -23.34376 -43.41843 18426 ft 316 kts 255°
2026-05-03 22:45 -23.34937 -43.44161 19005 ft 318 kts 257°
2026-05-03 22:45 -23.35474 -43.46504 19551 ft 321 kts 257°
2026-05-03 22:45 -23.36019 -43.48860 20094 ft 323 kts 257°
2026-05-03 22:45 -23.36571 -43.51234 20622 ft 325 kts 257°
2026-05-03 22:46 -23.37129 -43.53625 21141 ft 327 kts 257°
2026-05-03 22:46 -23.37689 -43.56025 21638 ft 329 kts 257°
2026-05-03 22:46 -23.38255 -43.58447 22132 ft 331 kts 257°
2026-05-03 22:46 -23.38823 -43.60877 22604 ft 333 kts 257°
2026-05-03 22:47 -23.39394 -43.63325 23069 ft 335 kts 257°
2026-05-03 22:47 -23.39965 -43.65774 23521 ft 337 kts 257°
2026-05-03 22:47 -23.40546 -43.68265 23970 ft 339 kts 257°
2026-05-03 22:47 -23.41126 -43.70756 24407 ft 341 kts 257°
2026-05-03 22:48 -23.41711 -43.73272 24833 ft 343 kts 257°
2026-05-03 22:48 -23.42298 -43.75794 25247 ft 345 kts 257°
2026-05-03 22:48 -23.42886 -43.78326 25652 ft 346 kts 257°
2026-05-03 22:48 -23.43479 -43.80875 26043 ft 348 kts 257°
2026-05-03 22:49 -23.44073 -43.83433 26430 ft 350 kts 257°
2026-05-03 22:49 -23.44670 -43.86006 26801 ft 352 kts 257°
2026-05-03 22:49 -23.45270 -43.88594 27170 ft 353 kts 258°
2026-05-03 22:49 -23.45870 -43.91185 27524 ft 355 kts 258°
2026-05-03 22:50 -23.46475 -43.93800 27874 ft 357 kts 258°
2026-05-03 22:50 -23.47083 -43.96427 28216 ft 358 kts 258°
2026-05-03 22:50 -23.47691 -43.99061 28545 ft 360 kts 258°
2026-05-03 22:50 -23.48302 -44.01708 28872 ft 361 kts 258°
2026-05-03 22:51 -23.48916 -44.04368 29187 ft 363 kts 258°
2026-05-03 22:51 -23.49530 -44.07032 29498 ft 364 kts 258°
2026-05-03 22:51 -23.50149 -44.09719 29797 ft 366 kts 258°
2026-05-03 22:51 -23.50769 -44.12412 30094 ft 367 kts 258°
2026-05-03 22:52 -23.51390 -44.15113 30379 ft 369 kts 258°
2026-05-03 22:52 -23.52013 -44.17825 30663 ft 370 kts 258°
2026-05-03 22:52 -23.52641 -44.20556 30938 ft 372 kts 258°
2026-05-03 22:52 -23.53268 -44.23287 31209 ft 373 kts 258°
2026-05-03 22:53 -23.53898 -44.26034 31473 ft 374 kts 258°
2026-05-03 22:53 -23.54528 -44.28785 31732 ft 376 kts 258°
2026-05-03 22:53 -23.55162 -44.31553 31983 ft 377 kts 258°
2026-05-03 22:53 -23.55795 -44.34322 32186 ft 380 kts 258°
2026-05-03 22:54 -23.56439 -44.37141 32202 ft 387 kts 258°
2026-05-03 22:54 -23.57760 -44.42940 32204 ft 402 kts 258°
2026-05-03 22:55 -23.59126 -44.48936 32218 ft 415 kts 258°
2026-05-03 22:55 -23.60536 -44.55138 32233 ft 428 kts 258°
2026-05-03 22:56 -23.61981 -44.61507 32251 ft 438 kts 258°
2026-05-03 22:56 -23.63462 -44.68045 32263 ft 447 kts 258°
2026-05-03 22:57 -23.64959 -44.74677 32252 ft 442 kts 258°
2026-05-03 22:57 -23.65684 -44.77877 32260 ft 428 kts 258°
2026-05-03 22:57 -23.66387 -44.80991 32265 ft 421 kts 258°
2026-05-03 22:58 -23.67786 -44.87215 32267 ft 427 kts 258°
2026-05-03 22:58 -23.69209 -44.93546 32263 ft 432 kts 258°
2026-05-03 22:59 -23.70635 -44.99892 32262 ft 429 kts 258°
2026-05-03 22:59 -23.72046 -45.06191 32264 ft 427 kts 259°
2026-05-03 23:00 -23.73455 -45.12498 32263 ft 428 kts 259°
2026-05-03 23:00 -23.74850 -45.18770 32261 ft 426 kts 259°
2026-05-03 23:01 -23.76236 -45.25007 31973 ft 417 kts 259°
2026-05-03 23:01 -23.76918 -45.28093 30995 ft 424 kts 259°
2026-05-03 23:01 -23.77607 -45.31222 30077 ft 427 kts 259°
2026-05-03 23:01 -23.78299 -45.34361 29185 ft 429 kts 259°
2026-05-03 23:02 -23.78974 -45.37530 28260 ft 430 kts 261°
2026-05-03 23:02 -23.79438 -45.40742 27291 ft 431 kts 266°
2026-05-03 23:02 -23.79717 -45.44001 26373 ft 431 kts 268°
2026-05-03 23:02 -23.79937 -45.47248 26266 ft 428 kts 268°
2026-05-03 23:03 -23.80140 -45.50498 26261 ft 432 kts 268°
2026-05-03 23:03 -23.80334 -45.53799 26262 ft 440 kts 268°
2026-05-03 23:03 -23.80523 -45.57152 26260 ft 446 kts 268°
2026-05-03 23:03 -23.80709 -45.60551 26260 ft 448 kts 269°
2026-05-03 23:04 -23.80891 -45.63937 26262 ft 447 kts 269°
2026-05-03 23:04 -23.81071 -45.67350 26263 ft 448 kts 269°
2026-05-03 23:04 -23.81247 -45.70745 26262 ft 447 kts 269°
2026-05-03 23:04 -23.81420 -45.74134 26262 ft 446 kts 269°
2026-05-03 23:05 -23.81592 -45.77517 26263 ft 446 kts 269°
2026-05-03 23:05 -23.81763 -45.80908 26263 ft 446 kts 269°
2026-05-03 23:05 -23.81933 -45.84304 26263 ft 446 kts 269°
2026-05-03 23:05 -23.82101 -45.87678 26258 ft 444 kts 269°
2026-05-03 23:06 -23.82267 -45.91005 25742 ft 437 kts 269°
2026-05-03 23:06 -23.82431 -45.94327 24898 ft 441 kts 269°
2026-05-03 23:06 -23.82594 -45.97688 23599 ft 446 kts 269°
2026-05-03 23:06 -23.82757 -46.01028 22948 ft 437 kts 269°
2026-05-03 23:07 -23.82918 -46.04317 22168 ft 431 kts 269°
2026-05-03 23:07 -23.83075 -46.07562 21394 ft 426 kts 269°
2026-05-03 23:07 -23.83229 -46.10774 20625 ft 421 kts 269°
2026-05-03 23:07 -23.83381 -46.13950 19869 ft 416 kts 269°
2026-05-03 23:08 -23.83530 -46.17083 19132 ft 411 kts 269°
2026-05-03 23:08 -23.83676 -46.20165 18385 ft 407 kts 269°
2026-05-03 23:08 -23.83822 -46.23241 17609 ft 404 kts 269°
2026-05-03 23:08 -23.83966 -46.26291 16868 ft 399 kts 269°
2026-05-03 23:09 -23.84048 -46.28017 16449 ft 397 kts 269°
2026-05-03 23:10 -23.84258 -46.32468 15385 ft 391 kts 269°
2026-05-03 23:10 -23.84396 -46.35412 14722 ft 395 kts 269°
2026-05-03 23:10 -23.84535 -46.38389 13995 ft 391 kts 269°
2026-05-03 23:10 -23.84672 -46.41329 13304 ft 386 kts 269°
2026-05-03 23:11 -23.84852 -46.45204 12393 ft 379 kts 268°
2026-05-03 23:11 -23.84984 -46.48063 11759 ft 373 kts 268°
2026-05-03 23:11 -23.85043 -46.49353 11575 ft 367 kts 268°
2026-05-03 23:12 -23.85161 -46.51940 11333 ft 353 kts 268°
2026-05-03 23:12 -23.85282 -46.54577 11148 ft 337 kts 268°
2026-05-03 23:12 -23.85397 -46.57079 11009 ft 322 kts 268°
2026-05-03 23:13 -23.85457 -46.59484 10847 ft 309 kts 275°
2026-05-03 23:13 -23.85020 -46.61724 10694 ft 296 kts 293°
2026-05-03 23:13 -23.83919 -46.63558 10556 ft 284 kts 314°
2026-05-03 23:13 -23.82390 -46.64889 10359 ft 278 kts 324°
2026-05-03 23:14 -23.80798 -46.65998 10016 ft 277 kts 326°
2026-05-03 23:14 -23.79172 -46.67109 9632 ft 277 kts 326°
2026-05-03 23:14 -23.77553 -46.68223 9320 ft 274 kts 326°
2026-05-03 23:14 -23.75975 -46.69314 9287 ft 264 kts 326°
2026-05-03 23:15 -23.74426 -46.70389 9295 ft 267 kts 325°
2026-05-03 23:15 -23.72860 -46.71478 9293 ft 269 kts 325°
2026-05-03 23:15 -23.71276 -46.72577 9255 ft 268 kts 326°
2026-05-03 23:15 -23.69730 -46.73648 8862 ft 270 kts 325°
2026-05-03 23:16 -23.68179 -46.74723 8576 ft 268 kts 325°
2026-05-03 23:16 -23.66625 -46.75799 8296 ft 261 kts 325°
2026-05-03 23:16 -23.65197 -46.76787 7954 ft 253 kts 325°
2026-05-03 23:16 -23.63738 -46.77798 7391 ft 251 kts 325°
2026-05-03 23:17 -23.62231 -46.78842 6824 ft 249 kts 325°
2026-05-03 23:17 -23.60809 -46.79829 6347 ft 244 kts 325°
2026-05-03 23:17 -23.59467 -46.80754 6068 ft 233 kts 327°
2026-05-03 23:17 -23.57979 -46.81375 5930 ft 218 kts 351°
2026-05-03 23:18 -23.56539 -46.81232 5812 ft 205 kts 19°
2026-05-03 23:18 -23.55339 -46.80502 5588 ft 199 kts 42°
2026-05-03 23:18 -23.54474 -46.79384 5385 ft 195 kts 59°
2026-05-03 23:18 -23.53759 -46.78135 5236 ft 193 kts 60°
2026-05-03 23:19 -23.53204 -46.77158 5223 ft 193 kts 60°
2026-05-03 23:19 -23.52534 -46.75996 5164 ft 197 kts 61°
2026-05-03 23:19 -23.52054 -46.74533 5092 ft 186 kts 87°
2026-05-03 23:19 -23.52353 -46.73258 4976 ft 171 kts 120°
2026-05-03 23:20 -23.53138 -46.72289 4614 ft 172 kts 141°
2026-05-03 23:20 -23.54108 -46.71575 4386 ft 163 kts 144°
2026-05-03 23:20 -23.55020 -46.70933 4216 ft 153 kts 145°
2026-05-03 23:20 -23.55926 -46.70307 4040 ft 154 kts 146°
2026-05-03 23:21 -23.56823 -46.69687 3846 ft 154 kts 146°
2026-05-03 23:21 -23.57724 -46.69064 3631 ft 153 kts 146°
2026-05-03 23:21 -23.58613 -46.68449 3427 ft 150 kts 146°
2026-05-03 23:21 -23.59487 -46.67845 3236 ft 148 kts 146°
2026-05-03 23:22 -23.61223 -46.66651 2847 ft 144 kts 147°
2026-05-03 23:22 -23.62047 -46.66076 2658 ft 138 kts 146°
2026-05-03 23:22 -23.62840 -46.65500 2722 ft 143 kts 146°
2026-05-03 23:23 -23.63641 -46.64888 3295 ft 140 kts 145°
2026-05-03 23:23 -23.64452 -46.64302 3813 ft 143 kts 158°
2026-05-03 23:23 -23.65424 -46.64279 4287 ft 143 kts 198°
2026-05-03 23:23 -23.66262 -46.64848 4754 ft 147 kts 224°
2026-05-03 23:24 -23.66812 -46.65832 5068 ft 164 kts 247°
2026-05-03 23:24 -23.66948 -46.67141 5209 ft 182 kts 278°
2026-05-03 23:24 -23.66360 -46.68408 5486 ft 198 kts 305°
2026-05-03 23:24 -23.65452 -46.69614 5489 ft 210 kts 306°
2026-05-03 23:25 -23.64564 -46.70862 5489 ft 209 kts 304°
2026-05-03 23:25 -23.63702 -46.72142 5494 ft 211 kts 303°
2026-05-03 23:25 -23.62813 -46.73486 5494 ft 223 kts 303°
2026-05-03 23:25 -23.61897 -46.74866 5489 ft 225 kts 303°
2026-05-03 23:26 -23.60977 -46.76246 5490 ft 225 kts 303°
2026-05-03 23:26 -23.60052 -46.77623 5491 ft 225 kts 303°
2026-05-03 23:26 -23.59122 -46.78997 5491 ft 225 kts 304°
2026-05-03 23:26 -23.58187 -46.80366 5491 ft 225 kts 304°
2026-05-03 23:27 -23.57254 -46.81730 5492 ft 225 kts 304°
2026-05-03 23:27 -23.56319 -46.83094 5492 ft 225 kts 305°
2026-05-03 23:27 -23.55111 -46.84173 5473 ft 229 kts 336°
2026-05-03 23:27 -23.53537 -46.84282 5507 ft 233 kts 12°
2026-05-03 23:28 -23.52020 -46.83662 5496 ft 235 kts 31°
2026-05-03 23:28 -23.50858 -46.82467 5306 ft 228 kts 59°
2026-05-03 23:28 -23.50318 -46.80901 4904 ft 212 kts 84°
2026-05-03 23:28 -23.50332 -46.79406 4857 ft 184 kts 105°
2026-05-03 23:29 -23.50765 -46.78192 4851 ft 170 kts 124°
2026-05-03 23:29 -23.51428 -46.77138 4860 ft 168 kts 129°
2026-05-03 23:29 -23.52109 -46.76112 4876 ft 171 kts 128°
2026-05-03 23:29 -23.52786 -46.75072 4877 ft 171 kts 128°
2026-05-03 23:30 -23.53451 -46.74051 4880 ft 168 kts 123°
2026-05-03 23:30 -23.54154 -46.73051 4874 ft 166 kts 127°
2026-05-03 23:30 -23.54838 -46.72080 4927 ft 155 kts 124°
2026-05-03 23:30 -23.55428 -46.71170 4935 ft 150 kts 123°
2026-05-03 23:31 -23.55972 -46.70245 4803 ft 153 kts 119°
2026-05-03 23:31 -23.56493 -46.69252 4214 ft 153 kts 123°
2026-05-03 23:31 -23.57247 -46.68553 3554 ft 154 kts 158°
2026-05-03 23:31 -23.58250 -46.68298 3086 ft 142 kts 165°
2026-05-03 23:32 -23.59183 -46.68050 3010 ft 140 kts 161°
2026-05-03 23:32 -23.60005 -46.67538 3022 ft 138 kts 143°
2026-05-03 23:32 -23.60819 -46.66928 2944 ft 147 kts 146°
2026-05-03 23:32 -23.61648 -46.66354 2750 ft 144 kts 146°
2026-05-03 23:33 -23.62459 -46.65789 2621 ft 121 kts 148°
2026-05-03 23:33 -23.62948 -46.65450 2633 ft 51 kts 148°
2026-05-03 23:33 -23.63086 -46.65362 2634 ft 0 kts 167°
2026-05-03 23:33 -23.63122 -46.65370 2634 ft 11 kts 200°
2026-05-03 23:34 -23.63189 -46.65392 2634 ft 5 kts 232°
2026-05-03 23:34 -23.63170 -46.65441 2634 ft 12 kts 321°
2026-05-03 23:34 -23.63070 -46.65507 2634 ft 18 kts 339°
2026-05-03 23:34 -23.62957 -46.65550 2633 ft 15 kts 329°
2026-05-03 23:35 -23.62867 -46.65614 2631 ft 15 kts 326°
2026-05-03 23:35 -23.62780 -46.65677 2628 ft 15 kts 327°
2026-05-03 23:35 -23.62687 -46.65742 2623 ft 16 kts 328°
2026-05-03 23:35 -23.62596 -46.65804 2621 ft 7 kts 328°
2026-05-03 23:36 -23.62569 -46.65833 2621 ft 4 kts 273°
2026-05-03 23:36 -23.62579 -46.65860 2621 ft 3 kts 242°
2026-05-03 23:36 -23.62594 -46.65885 2621 ft 1 kts 236°
2026-05-03 23:36 -23.62598 -46.65893 2621 ft 1 kts 236°
2026-05-03 23:37 -23.62601 -46.65896 2621 ft 0 kts 236°
2026-05-03 23:37 -23.62601 -46.65897 2621 ft 0 kts 236°